Regional Weather Roundup
Issued by NWS State College, PA

Home | Current Version | Previous Version | Text Only | Print | Product List | Glossary On
Versions: 1 2 3 4 5 6 7 8 9 10 11 12 13 14 15 16 17 18 19 20 21 22 23 24 25 26 27 28 29 30 31 32 33 34 35 36 37 38 39 40 41 42 43 44 45 46 47 48 49 50
000
ASUS41 KCTP 251410
RWRCTP

REGIONAL WEATHER ROUNDUP
NATIONAL WEATHER SERVICE STATE COLLEGE PA
1000 AM EDT WED APR 25 2018

Note: "fair" indicates few or no clouds below 12,000 feet with no
significant weather and/or obstructions to visibility.

* = STATION THAT DOES NOT REPORT PRECIPITATION /E.G. RAIN...SNOW...ETC/
    THUNDER OR FOG.

PAZ002>004-007>009-013>016-020>023-029>032-251500-
WESTERN PENNSYLVANIA

CITY           SKY/WX    TMP DP  RH WIND       PRES   REMARKS
ERIE           CLOUDY    51  49  92 NE5       29.85F FOG
MEADVILLE      CLOUDY    50  50 100 S3        29.83F
FRANKLIN*      CLOUDY    51  48  89 SE3       29.84F
NEW CASTLE     CLOUDY    53  51  93 CALM      29.85S
BEAVER COUNTY  CLOUDY    52  48  87 CALM      29.84S
BUTLER*        CLOUDY    53  48  83 E5        29.84F
PITTSBURGH INT CLOUDY    54  50  86 CALM      29.83S
PITTSBURGH     CLOUDY    54  50  86 CALM      29.82S
INDIANA*       CLOUDY    54  50  87 CALM      29.85F
LATROBE        PTSUNNY   54  50  87 CALM      29.83F
WASHINGTON CO* CLOUDY    55  50  83 NW3       29.86R
$$

PAZ004>006-010>012-017>019-024>028-033>037-041-042-045-046-049>053-251500-
CENTRAL PENNSYLVANIA

CITY           SKY/WX    TMP DP  RH WIND       PRES   REMARKS
BRADFORD       CLOUDY    50  47  89 SE5       29.83F
DUBOIS         CLOUDY    51  48  89 E6        29.82F
CLEARFIELD     CLOUDY    50  49  96 NE5       29.83F
JOHNSTOWN      CLOUDY    49  48  97 CALM      29.81S
ALTOONA        CLOUDY    53  49  86 NE3       29.83F
STATE COLLEGE  CLOUDY    50  50 100 NE3       29.84F FOG
WILLIAMSPORT   CLOUDY    54  51  90 CALM      29.83F
SELINSGROVE    CLOUDY    54  51  90 NW5       29.83F
FT INDIANTOWN  LGT RAIN  55  55  99 CALM      29.81F FOG
CAPITAL CITY   LGT RAIN  57  32  38 E6        29.81F
HARRISBURG     CLOUDY    56  54  93 NE10      29.80F
YORK           CLOUDY    56  55  97 NE6       29.80F FOG
$$

PAZ038>040-043-044-047-048-054-055-060>062-067>071-251500-
EASTERN PENNSYLVANIA

CITY           SKY/WX    TMP DP  RH WIND       PRES   REMARKS
SCRANTON       HVY RAIN  53  52  96 VRB5      29.85  FOG
MOUNT POCONO   LGT RAIN  49  49 100 E8G17     29.85F FOG
ALLENTOWN      CLOUDY    57  53  86 E6        29.84F FOG
QUAKERTOWN*    CLOUDY    55  55 100 E6        29.83F FOG
READING        CLOUDY    57  57 100 VRB3      29.81F FOG
LANCASTER      LGT RAIN  57  56  96 NE7       29.79F FOG
COATESVILLE    LGT RAIN  55  55 100 E10       29.81F VSB<1/4
POTTSTOWN      LGT RAIN  56  56 100 E6        29.83F FOG
BLUE BELL      CLOUDY    55  55 100 E6        29.82F VSB 1
DOYLESTOWN     CLOUDY    56  56 100 VRB3      29.82F FOG
WILLOW GROVE   NOT AVBL
NORTH PHILA    CLOUDY    61  58  90 E8        29.82F
PHILADELPHIA   CLOUDY    58  57  97 E9        29.80F
$$




USA.gov is the U.S. government's official web portal to all federal, state and local government web resources and services.